Skip Page Navigation
NASA JPL Caltech
NASA Logo - Jet Propulsion Laboratory + View the NASA Portal
+ Center for Near-Earth Object Studies
JPL Home Earth Solar System Stars & Galaxies Technology
JPL Solar System Dynamics
BODIES ORBITS EPHEMERIDES TOOLS PHYSICAL DATA DISCOVERY FAQ SITE MAP
JPL Small-Body Database Browser
Search: [ help ]  
160834 (2000 YD51)
Classification: Main-belt Asteroid          SPK-ID: 2160834
Ephemeris | Orbit Diagram | Orbital Elements | Mission Design | Physical Parameters | Discovery Circumstances ]

[ show orbit diagram ]
Orbital Elements at Epoch 2459000.5 (2020-May-31.0) TDB
Reference: JPL 17 (heliocentric ecliptic J2000)
 Element Value Uncertainty (1-sigma)   Units 
e .2733266390497527 4.8763e-08  
a 2.38313372693162 1.0247e-08 au
q 1.731759794943289 1.1961e-07 au
i 5.923291407171306 4.874e-06 deg
node 297.2867940882177 4.6135e-05 deg
peri 92.13665323191746 4.7459e-05 deg
M 144.6700952815135 1.0575e-05 deg
tp 2458460.495581877259
(2018-Dec-07.99558188)
3.8012e-05 TDB
period 1343.757949048839
3.68
8.6667e-06
2.373e-08
d
yr
n .2679053919307574 1.7279e-09 deg/d
Q 3.03450765891995 1.3048e-08 au
  Orbit Determination Parameters
   # obs. used (total)      911  
   data-arc span      7094 days (19.42 yr)  
   first obs. used      2000-11-24  
   last obs. used      2020-04-27  
   planetary ephem.      DE431  
   SB-pert. ephem.      SB431-N16  
   condition code      0  
   norm. resid. RMS      .5194  
   source      ORB  
   producer      Otto Matic  
   solution date      2020-May-21 01:36:31  

Additional Information
 Earth MOID = .749364 au 
 Jupiter MOID = 2.46304 au 
 T_jup = 3.478 
[ show covariance matrix ]

Ephemeris | Orbit Diagram | Orbital Elements | Mission Design | Physical Parameters | Discovery Circumstances ]

Physical Parameter Table
Parameter Symbol Value Units Sigma Reference Notes
absolute magnitude H 15.6   n/a MPO454065  

160834 (2000 YD51)          Discovered 2000-Dec-30 by LINEAR at Socorro
Reference: 20070828/Numbers.arcLast Updated: 2007-08-30
Ephemeris | Orbit Diagram | Orbital Elements | Mission Design | Physical Parameters | Discovery Circumstances ]
ABOUT SSD CREDITS/AWARDS PRIVACY/COPYRIGHT GLOSSARY LINKS
FirstGov 2020-Jul-13 15:43 UT
(server date/time)  
NASA Home Page
Site Manager:   Ryan S. Park
Webmaster  Alan B. Chamberlin